Location: Budapest
(47.4979°N, 19.0402°E)
Time: 10:05:04
(UTC+02:00)

Vanguard 2 - Visible Passes

Search period start: 23 June 2018 00:00
Search period end: 03 July 2018 00:00
Orbit: 553 x 2939 km, 32.9° (Epoch: 22 June)

Date Brightness Start Highest point End Pass type
(mag) Time Alt. Az. Time Alt. Az. Time Alt. Az.
24 Jun 9.9 02:41:15 13° S 02:42:04 13° SSE 02:45:00 10° SE visible
25 Jun 9.7 02:57:43 15° SSW 02:59:56 17° S 03:03:44 10° SE visible
26 Jun 9.5 03:14:06 14° SSW 03:17:48 20° S 03:22:01 10° SE visible
27 Jun 10.1 01:29:02 16° SSE 01:29:02 16° SSE 01:32:03 10° SE visible
27 Jun 9.4 03:30:24 12° SW 03:35:39 22° S 03:40:03 10° SE visible
28 Jun 9.8 01:45:13 21° SSE 01:45:13 21° SSE 01:50:37 10° ESE visible
28 Jun 9.3 03:47:12 10° SW 03:53:27 23° S 03:57:56 10° SE visible
29 Jun 9.7 02:01:12 23° S 02:03:05 25° S 02:08:52 10° ESE visible
29 Jun 9.3 04:05:01 10° WSW 04:11:13 23° SSW 04:15:40 10° SE visible
30 Jun 10.3 00:15:36 17° SE 00:15:36 17° SE 00:18:31 10° ESE visible
30 Jun 9.5 02:16:53 21° SSW 02:20:57 28° S 02:26:55 10° ESE visible
30 Jun 11.1 22:16:13 10° SSE 22:29:29 - ESE 22:16:53 10° SSE visible
01 Jul 10.0 00:30:42 24° SSE 00:30:42 24° SSE 00:37:04 10° ESE visible
01 Jul 9.4 02:31:54 15° SW 02:38:48 29° S 02:44:49 10° SE visible
01 Jul 10.6 22:30:10 10° S 22:38:25 17° SSE 22:45:10 10° ESE visible
02 Jul 9.9 00:36:59 10° SW 00:47:50 29° S 00:55:19 10° ESE visible
02 Jul 9.4 02:47:34 10° WSW 02:56:36 30° S 03:02:37 10° SE visible
02 Jul 10.5 22:45:48 10° SSW 22:56:14 22° SSE 23:04:21 10° ESE visible
